Date,TemperatureHighF,TemperatureAvgF,TemperatureLowF,DewpointHighF,DewpointAvgF,DewpointLowF,HumidityHigh,HumidityAvg,HumidityLow,PressureMaxIn,PressureMinIn,WindSpeedMaxMPH,WindSpeedAvgMPH,GustSpeedMaxMPH,PrecipitationSumIn
2013-1-22,12.6,9.9,7.9,8.4,6.6,3.0,89,86,76,29.93,29.76,9,6,14,0.00
2013-1-23,14.6,10.6,6.6,11.9,7.7,3.1,91,88,84,30.00,29.86,4,1,6,0.00
2013-1-24,15.3,13.2,12.1,12.6,10.7,9.2,91,89,84,30.20,29.85,2,0,3,0.00
2013-1-25,18.0,14.1,4.9,12.2,10.0,1.6,90,84,73,30.15,29.84,5,2,6,0.00
2013-1-26,27.6,15.2,-1.5,18.7,10.6,-4.9,92,82,65,30.14,29.85,4,0,4,0.16
2013-1-27,31.0,23.5,11.2,21.1,17.8,8.1,92,79,64,30.30,30.08,5,2,7,0.08
2013-1-28,42.0,33.5,24.8,41.3,31.3,18.7,98,92,77,30.07,29.58,6,3,10,0.33
2013-1-29,56.9,40.7,32.9,54.6,40.0,32.1,99,97,92,29.79,29.43,8,3,15,0.50
2013-1-30,68.3,59.3,49.7,58.3,53.5,47.0,94,82,66,29.42,28.76,14,6,24,0.24
2013-1-31,54.9,31.6,23.1,53.0,24.5,14.2,94,75,54,29.43,28.76,18,12,36,0.11
2013-2-1,23.3,20.8,18.4,19.1,15.8,9.1,93,81,66,29.92,29.43,10,6,20,0.00
2013-2-2,21.6,18.9,15.8,17.7,13.2,6.7,90,78,65,29.92,29.73,10,6,17,0.00
2013-2-3,26.2,19.5,13.1,20.0,16.0,10.7,92,86,70,29.74,29.55,3,1,7,0.05
2013-2-7,29.9,27.0,20.6,24.8,18.9,13.0,89,72,64,30.15,29.82,11,8,16,0.00
2013-2-8,32.4,26.7,19.4,31.6,24.3,17.7,97,91,72,29.86,29.53,9,6,16,0.00
2013-2-9,23.5,19.0,12.0,20.6,16.9,9.9,94,91,88,30.15,29.87,4,2,7,0.09
2013-2-10,37.9,19.4,-2.5,30.1,15.3,-5.7,92,84,68,30.14,29.67,6,1,11,0.10
2013-2-11,51.0,39.9,33.5,43.1,34.1,28.9,93,80,67,29.67,29.30,14,7,27,0.21
2013-2-12,36.2,34.3,32.1,31.0,28.5,26.3,83,79,73,29.69,29.43,12,8,24,0.00
2013-2-13,32.3,32.0,31.7,27.1,26.5,25.8,82,80,78,29.63,29.61,5,3,8,0.00
2013-2-18,32.7,29.2,27.5,21.4,18.8,16.2,67,65,62,29.76,29.61,4,3,9,0.05
2013-2-19,44.7,35.5,26.3,39.0,28.4,19.6,90,76,60,29.60,29.28,14,7,26,0.08
2013-2-20,26.1,22.0,20.3,21.0,18.5,16.7,91,86,77,29.81,29.48,11,8,23,0.00
2013-2-21,24.0,20.0,14.0,18.7,14.8,8.7,87,80,76,30.14,29.79,8,4,20,0.00
2013-2-22,36.5,28.7,21.7,31.5,24.2,17.1,92,83,72,30.13,29.71,10,5,16,0.01
2013-2-23,39.8,35.3,29.5,33.7,30.0,25.3,87,81,75,29.71,29.60,8,4,13,0.01
2013-2-24,35.0,32.2,30.1,30.3,27.9,26.0,91,84,73,29.80,29.58,8,5,15,0.00
2013-2-25,36.2,33.7,29.9,31.7,29.5,27.0,91,85,75,29.97,29.80,5,2,10,0.02
2013-2-26,42.8,34.7,24.8,34.0,29.4,23.3,95,82,62,29.97,29.52,10,5,18,0.76
2013-2-27,36.0,34.3,33.1,34.7,33.2,32.2,97,96,94,29.52,29.31,11,4,17,0.42
2013-2-28,36.1,34.7,33.4,35.1,33.6,32.4,97,96,94,29.48,29.27,5,2,10,0.34
2013-3-1,33.5,31.3,29.4,32.3,27.5,23.5,96,86,77,29.66,29.48,6,2,12,0.02
2013-3-3,26.2,24.2,21.8,22.4,20.1,17.3,92,84,76,29.66,29.60,6,3,13,0.00
2013-3-4,31.4,27.0,23.6,25.2,21.2,18.0,86,78,71,29.81,29.65,9,5,17,0.00
2013-3-5,32.3,28.5,25.1,26.5,23.6,20.8,88,82,72,29.84,29.73,9,4,14,0.01
2013-3-6,39.2,34.5,24.0,34.8,31.3,22.4,95,88,83,29.90,29.72,9,4,14,0.00
2013-3-7,38.8,35.5,32.1,33.2,31.9,29.8,95,87,78,30.04,29.90,5,2,9,0.00
2013-3-8,44.6,35.6,27.5,31.7,28.8,25.2,97,78,53,30.15,30.03,4,1,10,0.03
2013-3-9,47.8,35.9,26.3,39.0,31.3,24.7,96,84,57,30.16,29.93,6,2,9,0.01
2013-3-10,68.0,51.6,36.4,40.4,33.9,29.8,87,54,31,29.92,29.68,9,3,16,0.00
2013-3-11,63.0,53.9,44.4,45.6,37.5,33.8,89,56,38,29.69,29.37,9,4,19,0.08
2013-3-12,48.3,40.6,36.1,45.6,35.1,30.2,91,81,73,29.62,29.43,9,6,23,0.01
2013-3-13,35.9,35.0,34.5,31.1,30.7,30.3,87,84,80,29.62,29.61,6,5,13,0.00
2013-3-14,33.3,27.3,21.2,19.5,15.9,11.7,87,63,41,29.81,29.75,11,6,22,0.00
2013-3-15,40.6,32.9,26.3,33.1,26.3,16.4,94,77,58,29.78,29.45,11,6,21,0.06
2013-3-16,31.1,26.7,21.2,23.1,19.6,16.3,86,75,62,29.72,29.60,8,4,14,0.00
2013-3-17,32.0,26.0,18.9,23.8,18.4,10.4,92,74,47,30.08,29.71,5,2,11,0.01
2013-3-18,36.1,27.3,17.1,31.9,20.3,13.0,92,76,49,30.07,29.41,13,6,21,0.00
2013-3-19,38.3,33.3,26.7,35.6,27.7,20.9,92,80,60,29.56,29.38,11,6,20,0.04
2013-3-20,33.8,28.9,24.8,24.8,21.2,16.6,90,73,59,29.58,29.53,10,6,17,0.00
2013-3-21,26.3,23.5,21.7,18.1,17.7,17.3,83,79,69,29.55,29.52,5,3,8,0.00
2013-4-9,57.3,48.9,44.4,49.8,44.4,41.6,96,85,69,29.86,29.66,8,4,16,0.46
2013-4-10,46.0,42.4,39.9,45.2,41.4,38.0,98,96,92,29.83,29.63,9,4,13,0.52
2013-4-11,40.1,34.9,32.4,38.5,32.0,28.3,95,89,71,29.88,29.68,11,3,16,0.32
2013-4-12,47.3,39.7,34.6,46.8,37.5,31.3,98,92,82,29.68,29.25,14,7,21,0.84
2013-4-13,45.4,42.3,38.1,39.9,37.1,34.9,91,82,68,29.67,29.49,11,6,22,0.00
2013-4-14,47.3,40.8,35.8,36.2,32.0,29.8,91,71,56,29.93,29.67,7,4,13,0.01
2013-4-15,66.9,53.7,37.6,51.3,41.4,28.3,73,63,52,29.91,29.72,8,5,11,0.00
2013-4-16,66.7,57.8,40.9,59.0,50.6,37.3,97,78,64,29.99,29.67,14,6,27,0.09
2013-4-17,55.3,44.5,32.2,42.1,35.6,30.9,97,73,46,30.11,29.96,8,3,14,0.00
2013-4-18,80.6,55.7,42.5,62.9,45.6,34.6,90,70,54,29.97,29.42,14,7,19,0.06
2013-4-19,75.0,51.8,43.8,61.9,41.6,31.0,84,68,58,29.48,29.08,16,12,29,0.02
2013-4-20,43.7,38.6,32.0,34.6,29.3,23.6,90,69,54,30.17,29.47,13,8,21,0.03
2013-4-21,42.4,35.2,25.6,30.0,24.1,15.9,91,66,38,30.43,30.17,7,2,11,0.00
2013-4-22,51.7,36.5,28.0,32.1,23.8,16.7,83,61,46,30.34,30.25,9,3,19,0.00
2013-4-23,56.8,56.2,55.7,41.3,40.8,40.3,57,56,55,29.71,29.64,6,4,18,0.00
2013-4-24,64.0,53.7,38.8,58.0,46.0,35.8,94,77,52,29.75,29.32,10,6,16,0.36
2013-4-25,55.1,44.4,35.0,41.4,35.8,26.7,93,74,35,30.05,29.76,10,5,17,0.06
2013-4-26,56.7,46.3,35.7,38.8,34.2,24.0,95,66,30,30.22,30.05,6,2,7,0.01
2013-4-27,65.7,53.6,38.3,44.8,37.7,31.7,84,57,38,30.17,29.94,7,3,9,0.00
2013-4-28,75.3,59.0,42.9,52.6,44.3,37.4,88,62,26,29.94,29.73,12,4,21,0.05
2013-4-29,64.8,58.2,51.5,55.6,51.9,48.1,93,80,69,29.76,29.69,6,3,10,0.03
2013-4-30,71.7,64.1,57.4,60.5,55.4,52.3,88,74,59,29.92,29.76,7,3,14,0.00
2013-5-1,73.9,64.3,52.9,58.1,51.7,43.3,92,65,45,30.05,29.93,8,2,10,0.00
2013-5-2,72.8,63.8,47.2,48.4,42.9,38.2,88,49,32,30.13,29.98,9,4,15,0.00
2013-5-3,75.7,65.5,51.5,51.4,46.8,43.2,83,52,34,30.02,29.93,10,4,15,0.00
2013-5-4,69.8,60.7,46.8,52.0,45.1,39.1,94,59,35,30.01,29.88,10,3,16,0.00
2013-5-5,73.9,60.9,45.6,51.9,46.8,43.1,94,62,38,29.94,29.81,7,2,9,0.00
2013-5-8,64.8,61.0,58.2,59.9,58.4,56.7,95,91,84,29.69,29.66,2,1,3,0.13
2013-5-9,74.3,61.9,55.3,64.7,57.8,53.5,98,87,60,29.68,29.61,5,1,7,0.02
2013-5-10,76.6,62.5,50.3,65.2,57.4,48.9,98,84,59,29.67,29.43,10,3,13,0.07
2013-5-11,61.6,53.3,47.8,59.8,50.1,44.5,96,89,76,29.50,29.38,9,5,13,0.04
2013-5-12,50.8,44.1,38.8,48.2,38.4,33.1,93,81,58,29.67,29.42,10,6,15,0.28
2013-5-13,50.8,42.7,36.0,39.3,34.6,31.5,88,74,50,29.87,29.66,8,4,13,0.00
2013-5-14,59.1,46.5,31.5,40.6,35.6,30.0,96,69,36,29.90,29.67,7,2,9,0.00
2013-5-15,79.6,63.0,49.1,64.2,49.8,40.0,90,64,45,29.67,29.24,12,4,22,0.04
2013-5-16,75.5,61.3,45.2,54.2,46.4,37.7,88,61,28,29.76,29.46,10,3,16,0.00
2013-5-17,66.7,53.4,38.6,49.0,43.4,37.5,98,73,36,29.96,29.76,5,1,9,0.00
2013-5-18,69.3,57.4,41.6,51.5,45.0,40.6,98,67,44,29.99,29.86,9,4,13,0.00
2013-5-19,76.7,65.5,55.0,63.6,57.4,42.6,95,76,57,29.86,29.69,8,2,11,0.00
2013-5-20,81.5,71.9,57.6,69.3,64.1,55.0,92,77,63,29.76,29.58,7,3,9,0.00
2013-5-21,88.6,73.0,62.2,74.1,66.7,59.8,97,82,57,29.68,29.48,7,2,9,0.17
2013-5-22,88.3,77.3,60.6,72.1,66.9,60.0,99,72,50,29.52,29.36,7,3,9,0.00
2013-5-23,77.3,65.3,44.9,65.7,59.4,43.3,95,82,63,29.67,29.41,8,4,12,0.13
2013-5-24,53.5,43.6,39.7,43.5,39.8,37.6,96,87,61,29.93,29.67,6,3,12,0.16
2013-5-29,81.4,73.0,63.4,70.0,66.2,62.6,99,80,62,29.74,29.64,8,4,15,0.52
2013-5-30,87.4,76.3,66.9,72.4,67.1,62.4,91,74,55,29.83,29.74,8,3,12,0.00
2013-5-31,89.4,80.1,69.5,72.4,67.7,64.3,90,67,48,29.78,29.65,7,4,14,0.00
2013-6-1,87.9,75.0,68.1,72.4,68.6,65.1,97,82,56,29.68,29.49,10,4,19,0.84
2013-6-2,76.2,69.2,54.8,68.4,64.2,50.4,98,85,65,29.64,29.40,9,4,20,0.81
2013-6-3,64.6,56.2,50.0,53.4,47.9,44.8,91,75,50,29.77,29.64,7,2,12,0.00
2013-6-4,68.3,56.6,46.2,50.2,46.0,38.3,93,71,36,29.91,29.77,5,2,8,0.00
2013-6-5,66.6,57.8,48.0,56.2,48.1,42.9,92,72,48,29.97,29.83,8,3,12,0.00
2013-6-6,60.1,56.3,50.9,59.5,52.9,45.9,98,89,62,29.83,29.58,9,5,12,0.98
2013-6-7,58.2,55.9,52.0,57.9,55.5,51.4,99,99,97,29.62,29.56,4,1,8,0.05
2013-6-8,67.0,60.0,55.6,61.3,57.7,55.2,100,92,79,29.80,29.57,6,2,9,0.04
2013-6-9,73.7,64.7,54.7,61.9,57.3,53.3,96,78,58,29.93,29.80,5,2,7,0.00
2013-6-10,71.2,65.3,59.7,68.3,62.0,55.9,98,89,79,29.85,29.45,6,2,11,0.30
2013-6-25,81.4,75.1,69.5,72.7,69.0,67.5,94,82,70,29.57,29.52,6,4,10,0.25
2013-6-26,84.4,75.5,69.0,74.5,69.5,65.4,94,82,66,29.56,29.51,8,3,11,0.00
2013-6-27,78.6,71.3,64.2,72.4,68.2,63.0,98,90,80,29.54,29.37,6,1,6,0.00
2013-6-28,70.3,66.0,62.6,68.6,64.9,61.7,98,97,93,29.39,29.25,6,2,11,0.53
2013-6-29,69.5,63.3,61.9,66.2,62.5,61.3,99,97,88,29.29,29.24,3,1,6,0.21
2013-6-30,74.6,70.4,61.2,69.1,64.9,60.9,99,83,67,29.67,29.51,6,2,8,0.00
2013-7-1,68.1,65.2,60.8,64.5,62.3,58.6,98,90,80,29.82,29.67,7,3,11,0.11
2013-7-2,70.7,64.9,60.0,66.9,62.9,58.2,97,93,86,29.83,29.76,6,2,8,0.03
2013-7-3,67.1,65.9,64.7,65.8,64.9,63.7,98,96,95,29.82,29.81,1,0,2,0.01
2013-7-4,86.2,77.7,69.4,74.8,71.9,68.9,99,83,63,29.91,29.83,5,2,7,0.00
2013-7-5,83.9,76.2,70.5,77.2,72.1,68.8,98,88,71,29.87,29.78,5,1,7,0.31
2013-7-6,85.2,74.8,68.3,75.3,69.9,66.7,96,85,64,29.88,29.79,4,2,6,0.00
2013-7-7,82.3,76.9,71.0,73.7,70.9,67.9,99,82,68,29.76,29.66,9,3,13,0.55
2013-7-8,84.5,75.8,70.3,75.1,71.2,68.5,96,86,69,29.78,29.70,5,2,8,0.01
2013-7-9,80.8,74.7,69.8,76.4,71.9,68.5,98,91,77,29.78,29.62,6,1,7,0.20
2013-7-10,72.6,72.3,72.0,71.6,71.3,71.0,97,97,95,29.62,29.57,5,2,7,0.00
2013-7-11,80.3,70.3,60.3,68.3,63.0,57.9,96,79,58,29.75,29.61,3,1,6,0.00
2013-7-12,74.2,67.2,59.3,69.1,64.4,58.7,99,91,76,29.92,29.75,4,1,8,0.01
2013-7-13,80.5,70.9,58.6,73.4,66.8,58.0,100,88,73,29.97,29.91,6,2,9,0.00
2013-7-14,83.5,70.6,65.2,74.6,68.4,64.6,99,93,73,30.03,29.97,3,0,4,0.00
2013-7-15,91.0,80.3,71.3,77.1,72.8,69.5,94,79,54,29.98,29.95,0,0,0,0.00
2013-7-16,92.4,80.3,69.0,78.4,72.8,68.0,99,80,52,30.02,29.93,3,1,5,0.00
2013-7-17,93.0,83.8,73.9,82.9,78.1,72.1,97,84,62,29.95,29.79,5,2,7,0.00
2013-7-18,92.3,83.1,76.2,81.2,77.1,74.2,96,83,64,29.83,29.66,6,2,7,0.00
2013-7-19,91.0,82.5,70.4,80.3,75.0,68.2,94,79,61,29.67,29.42,10,5,17,0.16
2013-7-20,86.0,74.7,67.1,72.4,68.4,63.4,97,83,51,29.63,29.43,10,2,15,1.03
2013-7-21,74.7,68.3,60.3,66.6,63.5,59.2,97,85,69,29.76,29.62,6,2,9,0.00
2013-7-22,78.4,68.4,56.4,69.0,62.7,55.8,99,83,61,29.74,29.52,5,2,8,0.00
2013-7-23,83.8,73.2,64.3,72.8,67.7,59.1,99,84,63,29.51,29.34,7,2,13,0.01
2013-7-24,72.8,63.9,54.1,60.3,55.0,51.3,96,74,51,29.78,29.45,4,2,8,0.00
2013-7-25,74.2,62.8,51.3,61.5,55.8,50.5,98,80,50,29.87,29.78,5,1,8,0.00
2013-7-26,75.2,63.9,50.7,62.6,56.2,50.1,99,79,49,29.87,29.74,4,1,6,0.00
2013-7-27,80.5,67.6,54.7,68.6,62.8,53.3,98,86,60,29.74,29.53,5,2,7,0.10
2013-7-28,73.6,68.4,61.8,66.2,61.4,55.5,97,79,61,29.71,29.51,5,2,8,0.00
2013-7-29,71.8,64.4,57.6,65.8,59.4,54.8,94,84,63,29.86,29.70,5,2,9,0.19
2013-7-30,77.1,67.0,57.7,65.0,60.9,56.1,96,82,58,29.93,29.86,3,1,7,0.00
2013-7-31,79.6,67.0,55.9,69.4,62.7,55.3,99,87,55,29.88,29.66,3,1,5,0.00
2013-8-1,79.2,69.4,62.8,69.6,65.8,61.6,98,89,62,29.66,29.51,5,2,9,0.37
2013-8-2,80.4,67.0,57.4,67.9,62.0,56.6,99,85,55,29.62,29.55,9,2,14,0.93
2013-8-3,77.4,68.0,60.1,65.0,61.5,57.9,98,81,54,29.67,29.56,4,1,6,0.00
2013-8-4,72.7,64.4,57.0,61.7,57.5,53.1,97,79,58,29.80,29.68,5,2,8,0.00
2013-8-5,76.5,63.2,50.8,64.6,56.1,50.0,98,80,51,29.85,29.75,5,1,6,0.00
2013-8-6,79.4,66.9,54.9,66.2,59.8,54.0,98,80,52,29.79,29.69,5,1,7,0.00
2013-8-7,82.3,73.7,65.5,74.6,67.4,61.6,94,81,68,29.70,29.57,7,3,11,0.00
2013-8-8,81.5,74.3,66.6,76.1,70.6,65.7,98,89,74,29.69,29.61,6,1,6,0.35
2013-8-9,79.7,71.8,65.2,71.4,66.8,61.6,98,85,56,29.66,29.60,4,1,7,0.06
2013-8-10,74.4,65.6,55.2,62.3,58.2,53.7,98,78,51,29.83,29.66,4,1,9,0.00
2013-8-11,77.8,64.6,50.8,64.4,57.2,50.3,99,80,47,29.87,29.76,3,1,6,0.00
2013-8-12,77.5,68.0,56.8,67.0,62.5,55.8,98,83,63,29.78,29.58,6,2,8,0.00
2013-8-13,71.0,66.2,58.4,68.3,60.8,50.6,98,84,61,29.61,29.48,5,2,10,0.15
2013-8-14,70.8,61.3,52.5,58.8,53.9,50.8,95,78,51,29.82,29.59,5,2,12,0.01
2013-8-15,53.0,51.1,49.2,51.6,49.7,48.0,97,95,94,29.83,29.82,0,0,0,0.00
2013-8-18,72.6,64.5,60.5,67.5,62.2,59.4,96,92,84,29.85,29.84,0,0,0,0.00
2013-8-19,83.5,68.5,58.3,69.3,62.3,57.6,99,83,46,29.85,29.77,4,1,8,0.01
2013-8-28,82.2,75.1,66.2,76.5,71.8,65.3,99,90,74,29.70,29.59,4,1,7,0.01
2013-8-29,79.7,66.7,62.5,75.1,66.0,62.1,100,98,82,29.78,29.69,1,0,3,0.01
2013-8-31,78.7,73.3,66.3,74.5,70.4,65.1,98,91,83,29.59,29.47,4,1,6,0.02
2013-9-1,80.5,71.4,62.7,73.2,68.7,62.1,99,92,76,29.59,29.49,4,1,7,0.07
2013-9-2,81.4,72.0,62.9,75.3,68.2,58.9,99,88,70,29.53,29.41,4,2,6,0.03
2013-9-3,64.1,62.3,60.1,59.7,59.3,58.7,96,90,84,29.54,29.52,3,1,6,0.01
2013-9-5,65.8,57.6,46.1,58.4,49.1,42.8,98,76,48,29.98,29.80,4,1,9,0.00
2013-9-6,71.9,56.7,42.1,57.6,48.7,41.3,99,78,47,30.03,29.82,5,1,8,0.00
2013-9-7,65.3,61.7,57.0,64.4,57.5,52.1,97,86,76,29.82,29.60,8,3,17,0.00
2013-9-8,69.7,62.3,48.1,66.4,54.3,47.0,98,77,48,29.85,29.59,5,2,9,0.00
2013-9-9,72.3,58.5,44.1,65.3,53.6,43.3,98,85,61,29.88,29.67,5,1,5,0.00
2013-9-10,88.2,79.0,66.0,78.0,72.1,64.2,96,80,66,29.71,29.60,11,5,18,0.00
2013-9-11,89.4,81.7,74.0,76.5,73.8,71.2,93,78,59,29.75,29.62,9,4,17,0.03
2013-9-12,74.9,69.0,59.9,71.0,66.7,57.8,98,93,81,29.59,29.46,4,1,6,0.20
2013-9-13,62.5,55.2,51.6,60.2,52.1,46.7,96,89,81,29.78,29.50,3,2,6,0.15
2013-9-14,63.8,54.1,47.7,50.0,46.3,41.2,92,76,44,29.88,29.77,5,1,8,0.00
2013-9-15,68.7,58.0,48.5,59.1,52.2,45.1,95,82,67,29.89,29.79,6,3,11,0.10
2013-9-16,57.6,51.3,40.7,54.2,48.6,39.6,98,91,67,30.13,29.81,4,1,8,0.04
2013-9-17,67.7,49.4,37.0,52.1,43.9,36.4,99,84,48,30.24,30.03,4,1,7,0.00
2013-9-18,72.9,55.1,40.0,57.9,48.3,39.0,98,80,45,30.03,29.84,4,1,6,0.00
2013-9-19,77.7,59.5,46.4,66.2,54.5,45.6,98,85,59,29.86,29.76,5,2,10,0.01
2013-9-21,67.5,61.1,53.0,66.3,60.2,50.5,98,97,93,29.48,29.35,5,2,7,1.88
2013-9-22,58.0,53.0,50.6,50.7,47.4,42.8,96,82,68,29.78,29.47,5,2,8,0.00
2013-9-23,60.7,51.3,40.9,49.7,44.9,39.6,98,80,60,29.91,29.78,3,1,8,0.00
2013-9-24,66.8,50.5,38.3,54.4,45.0,37.6,99,84,45,29.91,29.76,3,0,5,0.01
2013-9-25,69.2,50.9,40.4,55.4,45.4,39.6,98,85,47,29.76,29.70,3,0,4,0.00
2013-9-26,70.9,54.8,41.1,59.3,50.2,40.5,99,86,61,29.90,29.75,3,1,7,0.01
2013-9-27,67.4,55.0,43.6,59.3,51.6,42.8,99,89,69,30.01,29.90,5,1,8,0.00
2013-9-28,73.8,57.0,42.5,62.9,53.0,41.9,99,88,61,30.03,29.89,4,1,9,0.00
2013-9-29,77.2,62.0,50.5,64.7,55.6,48.6,96,82,51,29.90,29.72,6,2,10,0.01
2013-9-30,77.5,65.1,56.7,65.1,60.4,55.6,97,85,65,29.74,29.67,4,1,7,0.00
2013-10-1,75.8,65.7,54.4,64.5,60.7,53.6,99,85,59,29.76,29.63,6,2,10,0.00
2013-10-2,77.5,67.5,51.9,66.1,61.0,50.8,96,81,50,29.83,29.64,4,2,8,0.00
2013-10-3,71.9,58.0,44.0,60.7,52.4,43.5,99,84,48,29.87,29.75,3,0,4,0.02
2013-10-4,64.1,62.0,58.2,63.5,60.8,56.8,99,96,91,29.81,29.72,3,1,6,0.33
2013-10-5,63.7,61.1,59.2,61.1,58.6,56.6,97,92,85,29.84,29.76,3,1,8,0.22
2013-10-6,83.4,68.7,59.6,75.8,66.2,57.3,99,92,76,29.75,29.41,6,1,9,0.62
2013-10-7,75.4,64.1,56.8,67.9,58.9,47.3,97,84,62,29.51,29.36,8,4,14,0.36
2013-10-22,47.5,42.6,39.9,33.5,32.9,32.1,76,69,57,29.58,29.56,5,2,6,0.32
2013-10-23,46.1,40.0,32.5,43.1,36.8,31.2,96,89,72,29.57,29.46,4,1,5,0.12
2013-10-24,47.5,40.7,34.4,40.2,36.1,31.9,93,84,67,29.77,29.54,8,3,12,0.07
2013-10-25,51.1,41.8,31.0,43.0,37.6,30.0,98,86,65,29.93,29.77,5,2,9,0.01
2013-10-26,45.6,42.3,38.7,41.4,37.6,32.2,94,84,64,29.85,29.51,11,7,20,0.40
2013-10-27,49.6,42.3,36.6,41.5,38.0,34.4,96,85,66,29.80,29.54,5,2,11,0.01
2013-10-28,48.8,42.1,26.6,42.2,33.4,22.2,94,73,38,30.15,29.76,7,2,10,0.00
2013-10-29,26.6,25.5,24.4,25.4,24.3,23.2,96,95,94,30.21,30.15,0,0,1,0.00